Location: Rometta
(44.2000°N, 10.0500°E)
Time: 16:52:09
(UTC+00:00)

Cosmos 2112 Rocket - Pass Details

Date: 20 January 2021
Orbit: 757 x 786 km, 74.1° (Epoch: 01 March)

Event Time Altitude Azimuth Distance (km) Brightness Sun altitude
Rises 18:55:04 0° 336° (NNW) 3,251 7.5 -28.7°
Reaches altitude 10° 18:57:29 10° 333° (NNW) 2,315 6.8 -29.1°
Enters shadow 19:02:18 62° 276° (W) 862 4.4 -30.0°
